TimeCST,TemperatureF,Dew PointF,Humidity,Sea Level PressureIn,VisibilityMPH,Wind Direction,Wind SpeedMPH,Gust SpeedMPH,PrecipitationIn,Events,Conditions,WindDirDegrees,DateUTC
12:52 AM,36.0,30.9,82,29.89,10.0,ESE,8.1,-,N/A,,Clear,110,2012-11-21 06:52:00
1:52 AM,33.1,30.0,89,29.89,10.0,SE,4.6,-,N/A,,Clear,140,2012-11-21 07:52:00
2:52 AM,32.0,30.0,92,29.89,10.0,South,5.8,-,N/A,,Clear,170,2012-11-21 08:52:00
3:52 AM,37.0,33.1,86,29.86,10.0,ESE,6.9,-,N/A,,Clear,110,2012-11-21 09:52:00
4:52 AM,36.0,32.0,86,29.86,10.0,SE,5.8,-,N/A,,Clear,130,2012-11-21 10:52:00
5:52 AM,37.0,33.1,86,29.85,10.0,SE,5.8,-,N/A,,Clear,130,2012-11-21 11:52:00
6:52 AM,37.0,33.1,86,29.83,10.0,ESE,8.1,-,N/A,,Clear,120,2012-11-21 12:52:00
7:52 AM,36.0,32.0,86,29.82,10.0,SE,6.9,-,N/A,,Clear,140,2012-11-21 13:52:00
8:52 AM,37.0,32.0,82,29.82,10.0,Calm,Calm,-,N/A,,Clear,0,2012-11-21 14:52:00
9:52 AM,42.1,35.1,76,29.79,10.0,SSE,5.8,-,N/A,,Clear,160,2012-11-21 15:52:00
10:52 AM,46.9,35.1,63,29.76,10.0,SSE,9.2,-,N/A,,Clear,160,2012-11-21 16:52:00
11:52 AM,48.9,35.1,59,29.72,10.0,SSE,8.1,-,N/A,,Clear,150,2012-11-21 17:52:00
12:52 PM,52.0,35.1,53,29.69,10.0,SSE,5.8,-,N/A,,Clear,150,2012-11-21 18:52:00
1:52 PM,55.9,35.1,45,29.65,10.0,SSE,6.9,-,N/A,,Clear,150,2012-11-21 19:52:00
2:52 PM,59.0,36.0,42,29.63,10.0,SSE,8.1,-,N/A,,Clear,150,2012-11-21 20:52:00
3:52 PM,57.9,35.1,42,29.61,10.0,SSE,9.2,-,N/A,,Clear,150,2012-11-21 21:52:00
4:52 PM,50.0,35.1,57,29.60,10.0,SE,6.9,-,N/A,,Clear,140,2012-11-21 22:52:00
5:52 PM,46.0,34.0,63,29.61,10.0,SE,8.1,-,N/A,,Clear,130,2012-11-21 23:52:00
6:52 PM,46.9,33.1,59,29.60,10.0,ESE,6.9,-,N/A,,Clear,120,2012-11-22 00:52:00
7:52 PM,46.0,33.1,61,29.59,10.0,SE,4.6,-,N/A,,Clear,130,2012-11-22 01:52:00
8:52 PM,46.0,33.1,61,29.59,10.0,SE,5.8,-,N/A,,Clear,140,2012-11-22 02:52:00
9:52 PM,42.1,34.0,73,29.59,10.0,East,6.9,-,N/A,,Clear,100,2012-11-22 03:52:00
10:52 PM,39.9,33.1,77,29.61,10.0,Calm,Calm,-,N/A,,Clear,0,2012-11-22 04:52:00
11:52 PM,44.1,34.0,68,29.63,10.0,WNW,10.4,-,N/A,,Clear,300,2012-11-22 05:52:00